STARLINK-11605, 63134

Orbit data source: Space-Track

STARLINK-11605, 63134 is a payload satellite owned by SpaceX/Seattle (US) in LEO that was launched on Mon, 03 Mar 2025 UTC via an FALCON 9 launch vehicle from the Air Force Eastern Test Range (AFETR). Payload-class satellites include a variety of spacecraft equipped with specific instruments for various scientific and technological missions. These include communications satellites like Starlink; space stations such as the ISS; scientific satellites like the Hubble; Earth observation satellites from companies like Planet Labs, Umbra, and HawkEye 360; GPS; miniature CubeSats for education and research; and military/defense satellites.

Loading next visibility...
Identifier
63134, 2025-043C
Orbit
LEO
Country
Flag of USUS
Related business
Manufacturer
SpaceX/Seattle
Mission
Operational Commercial Communications
Bus & Motor
STARLINK V2MD, Unknown motor
Mass
960 kg wet, ~910 kg dry
Launch date (UTC)
2025-03-03 (11 months ago)
Launch vehicle
FALCON 9
Launch site
Air Force Eastern Test Range (AFETR)
Object type
Payload
Rocket body
Debris
Shape & HBR
Box + 2 Pan, 18.1 m
Radar Cross Section
36.964 m², Large (>1 m²)

Expand to show TLE details & history
Last TLE update: 7 hours ago

TLE from 7 hours ago
0 STARLINK-11605
1 63134U 25043C   26037.11154241  .00318962  00000-0  23796-2 0  9996
2 63134  42.9975  81.2446 0001918 224.4392 135.6322 15.70994699 54386
Epoch: 2026-02-06T02:40Z
TLE epoch observation values (Epoch: 2026-02-06T02:40:37.264Z)
Latitude
-0°
Longitude
-95.16478°
Altitude
356.747 km
Speed
7.696 km/s
True Right ascension
05h 24m 58s
True Declination
0° 00' 00"
Sunlit
Object was in full shadow at epoch
Visualization orbit readout
Latitude
Unknown
Longitude
Unknown
Altitude
Unknown
Speed
Unknown
Apparent Right ascension
Unknown
Apparent Declination
Unknown
Sunlit
N/A
Visualization observer readout
Local Sidereal Time
11:37:05
Azimuth
Unknown
Elevation
Unknown
Doppler factor
Unknown
Orbital elements
Apogee altitude
359.327 km
Perigee altitude
356.743 km
Semi-major axis
6,736.172 km
Eccentricity
0.00019
Inclination
42.9975°
RAAN
81.2446°
Arg. of periapsis
224.4392°
True anomaly
135.64757°
Mean anomaly
135.6322°
Eccentric anomaly
135.63988°
Mean motion
3.92576 °/min
Orbital period
91.7 mins
BSTAR
0.0023796
Loading maneuver chart data...
Computing Atmospheric mass density...
Loading historical data...
Loading historical data...
Loading historical data...
Loading historical data...
Loading historical data...
Loading historical data...
Loading historical data...

Documentation

Showing up to 5 results
|